DW7898 Weather Reports


time (UTC)temp
C
wind
direction
speed
KPH
gust
KPH
rain 1hr
cm
rain 24hr
cm
rain mn
cm
humidity
%
barometer
mb
20260510132344 23 236 11.3 19.3 0.00 1.47 0.03 46 1011.2
20260510131348 23 278 9.7 24.1 0.00 1.47 0.03 45 1011.4
20260510130354 23 243 11.3 25.7 0.00 1.47 0.03 47 1011.5
20260510125346 23 246 14.5 27.4 0.00 1.47 0.03 46 1011.6
20260510124350 23 258 16.1 24.1 0.00 1.47 0.03 45 1011.6
20260510123352 23 268 17.7 24.1 0.00 1.47 0.03 44 1011.6
20260510122351 22 241 14.5 22.5 0.00 1.47 0.03 45 1011.9
20260510121353 23 255 17.7 22.5 0.00 1.47 0.03 42 1011.9
20260510120353 23 241 9.7 19.3 0.00 1.47 0.03 43 1012.0
20260510115352 22 232 12.9 25.7 0.00 1.47 0.03 46 1012.0
20260510114350 22 280 14.5 22.5 0.00 1.47 0.03 48 1012.2
20260510113340 22 239 8.0 20.9 0.00 1.47 0.03 49 1012.3
20260510112337 22 228 6.4 22.5 0.00 1.47 0.03 53 1012.4
20260510111358 22 317 12.9 22.5 0.00 1.47 0.03 54 1012.5
20260510110358 22 214 8.0 22.5 0.00 1.47 0.03 55 1012.6
20260510105356 21 249 9.7 27.4 0.00 1.47 0.03 56 1012.6
20260510104354 21 273 9.7 24.1 0.00 1.47 0.03 58 1012.7
20260510103357 21 276 14.5 22.5 0.00 1.47 0.03 58 1012.8
20260510102352 20 272 11.3 20.9 0.00 1.47 0.03 62 1012.8
20260510101354 20 245 12.9 22.5 0.00 1.47 0.03 63 1013.0
20260510100354 20 272 6.4 16.1 0.00 1.47 0.03 63 1013.0
20260510095352 20 234 11.3 17.7 0.00 1.47 0.03 63 1013.3
20260510094355 19 238 9.7 19.3 0.00 1.47 0.03 66 1013.2
20260510093356 19 258 11.3 22.5 0.00 1.47 0.03 66 1013.2
20260510092354 18 244 14.5 20.9 0.00 1.47 0.03 68 1013.3
20260510091338 18 258 16.1 27.4 0.00 1.47 0.03 68 1013.2
20260510090347 18 248 19.3 29.0 0.00 1.47 0.03 71 1013.2
20260510085348 18 238 6.4 22.5 0.00 1.47 0.03 75 1013.2
20260510084356 17 257 14.5 25.7 0.00 1.47 0.03 79 1013.2
20260510083341 17 257 12.9 24.1 0.00 1.47 0.03 93 1013.4
20260510082343 16 279 9.7 24.1 0.00 1.47 0.03 100 1013.4
20260510081352 16 228 19.3 27.4 0.00 1.47 0.03 100 1013.3
20260510080357 16 261 6.4 19.3 0.00 1.47 0.03 100 1013.3
20260510075350 15 289 4.8 20.9 0.00 1.47 0.03 100 1013.2
20260510074354 15 266 9.7 17.7 0.00 1.47 0.03 100 1013.3
20260510073342 14 243 3.2 8.0 0.00 1.47 0.03 100 1013.3
20260510072340 13 226 1.6 8.0 0.00 1.47 0.03 100 1013.3
20260510071345 13 236 3.2 8.0 0.00 1.47 0.03 100 1013.4
20260510070349 13 232 1.6 6.4 0.00 1.47 0.03 100 1013.3
20260510065346 12 226 4.8 9.7 0.00 1.47 0.03 100 1013.2
20260510064354 12 215 3.2 8.0 0.00 1.47 0.03 100 1013.1
20260510063342 12 211 4.8 6.4 0.00 1.47 0.03 100 1013.2
20260510062345 12 208 4.8 8.0 0.00 1.47 0.03 100 1013.2
20260510061350 12 212 4.8 8.0 0.00 1.47 0.03 100 1013.1
20260510060354 12 216 3.2 8.0 0.00 1.47 0.03 100 1013.1
20260510055352 12 218 1.6 4.8 0.00 1.47 0.03 100 1013.2
20260510054340 12 218 3.2 4.8 0.00 1.47 0.03 100 1013.2
20260510053350 12 218 1.6 6.4 0.00 1.47 0.03 100 1013.2
20260510052345 12 219 3.2 6.4 0.00 1.47 0.03 100 1013.2
20260510051353 11 238 1.6 6.4 0.00 1.47 0.03 100 1013.2
20260510050341 11 237 3.2 8.0 0.00 1.47 0.03 100 1013.2
20260510045339 11 223 1.6 6.4 0.00 1.47 0.03 100 1013.0
20260510044356 11 217 1.6 9.7 0.00 1.47 0.03 100 1012.9
20260510043341 11 230 6.4 9.7 0.00 1.47 0.03 100 1013.1
20260510042342 11 231 3.2 6.4 0.00 1.47 0.03 100 1013.1
20260510041347 12 228 1.6 6.4 0.00 1.47 0.03 100 1013.2
20260510040348 12 223 3.2 6.4 0.00 1.47 0.03 100 1013.2
20260510035354 12 223 1.6 6.4 0.00 1.47 0.03 100 1013.1
20260510034339 12 227 3.2 6.4 0.00 1.47 0.03 100 1013.1
20260510033347 12 223 1.6 6.4 0.00 1.47 0.03 100 1013.2
20260510032347 12 221 3.2 6.4 0.00 1.47 0.03 100 1013.2
20260510031353 12 221 3.2 4.8 0.00 1.47 0.03 100 1013.2
20260510030340 12 222 3.2 6.4 0.03 1.47 0.03 100 1013.2
20260510025339 12 223 3.2 6.4 0.03 1.47 0.03 100 1013.3
20260510024345 12 224 3.2 3.2 0.03 1.47 0.03 100 1013.5
20260510023353 12 223 1.6 4.8 0.03 1.47 0.03 100 1013.4
20260510022353 12 223 3.2 6.4 0.03 1.47 0.00 100 1013.7
20260510021342 12 204 0.0 0.0 0.03 1.47 0.00 100 1013.7
20260510020345 13 204 0.0 0.0 0.00 1.45 0.00 100 1013.4
20260510015349 13 203 0.0 4.8 0.00 1.45 0.00 100 1013.4
20260510014356 13 203 1.6 4.8 0.00 1.45 0.00 100 1013.4
20260510013338 13 201 0.0 0.0 0.00 1.45 0.00 100 1013.2
20260510012353 13 201 0.0 0.0 0.00 1.45 0.00 100 1013.2
20260510011357 13 201 0.0 1.6 0.00 1.45 0.00 100 1013.4
20260510010341 13 201 0.0 3.2 0.00 1.45 0.00 100 1013.2
20260510005349 13 201 0.0 1.6 0.00 1.45 0.00 100 1013.4
20260510004352 13 201 0.0 0.0 0.00 1.45 0.00 100 1013.5
20260510003352 13 201 0.0 0.0 0.00 1.45 0.00 100 1013.6
20260510002350 13 201 0.0 1.6 0.00 1.45 0.00 100 1013.7
20260510001354 13 201 0.0 1.6 0.00 1.45 0.00 100 1013.8
20260510000342 13 201 1.6 4.8 0.00 1.45 0.00 100 1014.0
20260509235349 13 201 0.0 4.8 0.00 1.45 0.00 100 1014.2
20260509234354 14 201 0.0 0.0 0.00 1.45 0.00 100 1014.1
20260509233338 14 201 0.0 0.0 0.00 1.45 0.00 100 1014.3
20260509232355 14 201 0.0 0.0 0.00 1.45 0.00 100 1014.4
20260509231344 14 201 0.0 3.2 0.00 1.45 0.00 100 1014.3
20260509230346 14 201 0.0 0.0 0.00 1.45 0.00 100 1014.3
20260509225348 14 201 0.0 0.0 0.00 1.45 0.00 100 1014.3
20260509224353 14 201 0.0 0.0 0.00 1.45 0.00 100 1014.4
20260509223334 14 201 0.0 4.8 0.00 1.45 0.00 100 1014.3
20260509222341 14 201 1.6 3.2 0.00 1.45 0.00 100 1014.4
20260509221346 14 201 1.6 4.8 0.00 1.45 0.00 100 1014.4
20260509220354 14 201 0.0 0.0 0.00 1.45 0.00 100 1014.3
20260509215352 14 201 0.0 0.0 0.00 1.45 1.45 100 1014.3
20260509214355 14 201 0.0 0.0 0.00 1.45 1.45 100 1014.4
20260509213344 14 201 0.0 3.2 0.00 1.45 1.45 100 1014.2
20260509212349 14 201 0.0 1.6 0.00 1.45 1.45 100 1014.2
20260509211336 14 201 0.0 3.2 0.00 1.45 1.45 100 1014.1
20260509210341 14 201 1.6 4.8 0.00 1.45 1.45 100 1014.2
20260509205342 15 209 0.0 0.0 0.00 1.45 1.45 100 1014.1
20260509204351 15 209 0.0 3.2 0.00 1.45 1.45 100 1014.0
20260509203340 15 209 0.0 0.0 0.00 1.45 1.45 100 1013.8
20260509202354 15 208 0.0 0.0 0.00 1.45 1.45 100 1013.5
20260509201341 15 209 0.0 1.6 0.00 1.45 1.45 100 1013.2
20260509200347 15 208 0.0 0.0 0.00 1.45 1.45 100 1013.2
20260509195348 15 207 0.0 0.0 0.00 1.45 1.45 100 1013.0
20260509194350 15 207 0.0 3.2 0.00 1.45 1.45 100 1013.1
20260509193336 15 206 1.6 4.8 0.00 1.45 1.45 100 1012.9
20260509192339 15 202 3.2 4.8 0.00 1.45 1.45 100 1012.8
20260509191350 15 159 3.2 4.8 0.00 1.45 1.45 100 1012.6
20260509190337 14 60 0.0 0.0 0.00 1.45 1.45 100 1012.1
20260509185353 14 59 0.0 3.2 0.03 1.45 1.45 100 1012.0
20260509184338 14 60 0.0 3.2 0.03 1.45 1.45 100 1011.8
20260509183344 15 60 0.0 8.0 0.03 1.45 1.45 100 1011.8
20260509182343 15 56 6.4 11.3 0.03 1.45 1.45 99 1011.4
20260509181347 15 0 1.6 8.0 0.03 1.45 1.45 99 1011.6
20260509180353 15 89 0.0 4.8 0.05 1.45 1.45 99 1011.3
20260509175356 15 59 3.2 4.8 0.05 1.45 1.45 98 1011.2
20260509174357 15 54 1.6 6.4 0.15 1.45 1.45 97 1011.3
20260509173340 15 33 6.4 11.3 0.25 1.45 1.45 96 1011.0
20260509172353 15 29 0.0 6.4 0.38 1.45 1.40 96 1011.2
20260509171354 15 358 4.8 12.9 0.51 1.45 1.40 95 1011.1
20260509170337 15 346 6.4 12.9 0.58 1.42 1.40 94 1011.6
20260509165343 15 356 3.2 8.0 0.66 1.37 1.12 94 1012.3
20260509164347 15 150 0.0 1.6 0.64 1.30 1.12 94 1012.6
20260509163353 15 151 0.0 1.6 0.61 1.17 1.12 93 1012.9
20260509162354 15 151 0.0 3.2 0.53 1.07 0.79 92 1013.4
20260509161358 15 233 1.6 4.8 0.48 0.94 0.79 92 1013.7
20260509160357 15 233 4.8 6.4 0.43 0.86 0.79 91 1013.9
20260509155402 15 238 4.8 14.5 0.33 0.71 0.53 90 1014.0
20260509154402 15 258 9.7 16.1 0.33 0.66 0.53 88 1014.0
20260509153412 16 212 12.9 20.9 0.41 0.58 0.53 87 1013.5
20260509152400 16 229 8.0 14.5 0.41 0.51 0.43 86 1013.0
20260509151417 16 193 3.2 11.3 0.36 0.46 0.43 86 1011.7
20260509150423 16 60 3.2 22.5 0.38 0.43 0.43 85 1010.4
20260509145417 16 26 9.7 22.5 0.38 0.41 0.13 84 1010.9
20260509144414 16 56 8.0 25.7 0.33 0.33 0.13 82 1011.0
20260509143421 16 85 12.9 25.7 0.18 0.18 0.13 79 1011.7
20260509142418 17 83 6.4 14.5 0.13 0.13 0.05 76 1012.8
20260509141422 17 137 6.4 11.3 0.10 0.10 0.05 72 1013.4
20260509140409 18 111 1.6 6.4 0.05 0.05 0.05 68 1013.5
20260509135415 18 126 0.0 6.4 0.03 0.03 0.00 64 1013.9
20260509134338 18 158 1.6 8.0 0.00 0.00 0.00 60 1013.7
20260509133342 18 116 4.8 14.5 0.00 0.00 0.00 60 1013.4